This demonstration page uses our WeatherBlox Daily Observations layout. Learn more.

Left ArrowRight Arrow

34.02893, -84.19858

Hourly Observations for July 19, 2018

Temp ( °F °C ) Dew Point ( °F °C ) Humidity (%) Winds ( mph kmh ) Pressure ( in mb ) Visibility ( mi km ) Precip ( " mm )
12:53 am 00:53 Clear 76 24.4 72 22.2 88 88 Calm 29.90 1013 10 16 0.00 0.00
1:53 am 01:53 Clear 75 23.9 72 22.2 90 90 Calm 29.89 1012 10 16 0.00 0.00
2:53 am 02:53 Clear 74 23.3 72 22.2 94 94 Calm 29.88 1012 10 16 0.00 0.00
3:53 am 03:53 Clear 74 23.3 72 22.2 94 94 Calm 29.87 1012 10 16 0.00 0.00
4:53 am 04:53 Clear 75 23.9 72 22.2 90 90 VRB 5 7 29.88 1012 10 16 0.00 0.00
5:53 am 05:53 Partly Cloudy 75 23.9 72 22.2 90 90 Calm 29.90 1012 10 16 0.00 0.00
6:53 am 06:53 Mostly Cloudy 74 23.3 71 21.7 91 91 E 3 6 29.91 1013 9 14 0.00 0.00
7:10 am 07:10 Partly Cloudy 74 23.3 71 21.7 91 91 VRB 3 6 29.94 1014 10 16 0.00 0.00
7:53 am 07:53 Sunny 75 23.9 71 21.7 88 88 VRB 3 6 29.93 1014 10 16 0.00 0.00
8:53 am 08:53 Sunny 79 26.1 70 21.1 74 74 Calm 29.94 1014 10 16 0.00 0.00
9:53 am 09:53 Sunny 82 27.8 70 21.1 67 67 VRB 3 6 29.95 1014 10 16 0.00 0.00
10:53 am 10:53 Sunny 84 28.9 70 21.1 63 63 ESE 7 11 29.94 1014 10 16 0.00 0.00
11:53 am 11:53 Partly Cloudy 84 28.9 73 22.8 70 70 VRB 6 9 29.95 1014 10 16 0.00 0.00
12:40 pm 12:40 Mostly Cloudy 83 28.3 72 22.2 70 70 E 8 13 29.97 1015 9 14 0.00 0.00
12:48 pm 12:48 Partly Cloudy 82 28 72 22 70 70 VRB 5 7 29.97 1015 9 14 0.00 0.00
12:53 pm 12:53 Mostly Cloudy 82 27.8 72 22.2 72 72 ENE 8 13 29.96 1015 9 14 0.00 0.00
1:53 pm 13:53 Mostly Cloudy 83 28.3 72 22.2 70 70 VRB 6 9 29.94 1014 9 14 0.00 0.00
1:57 pm 13:57 Partly Cloudy 84 28.9 73 22.8 70 70 VRB 5 7 29.94 1014 9 14 0.00 0.00
2:05 pm 14:05 Mostly Cloudy 84 28.9 73 22.8 70 70 VRB 3 6 29.94 1014 9 14 0.00 0.00
2:13 pm 14:13 Partly Cloudy 85 29.4 72 22.2 65 65 VRB 3 6 29.94 1014 10 16 0.00 0.00
2:53 pm 14:53 Mostly Sunny 87 30.6 72 22.2 61 61 VRB 3 6 29.91 1013 10 16 0.00 0.00
3:53 pm 15:53 Mostly Sunny 87 30.6 69 20.6 55 55 ESE 12 19 29.88 1012 10 16 0.00 0.00
4:53 pm 16:53 Partly Cloudy 85 29.4 71 21.7 63 63 VRB 3 6 29.89 1012 10 16 0.00 0.00
5:53 pm 17:53 Mostly Sunny 83 28.3 72 22.2 70 70 VRB 7 11 29.91 1013 10 16 0.00 0.00
6:53 pm 18:53 Mostly Cloudy with Light Rain 81 27.2 73 22.8 77 77 E 6 9 29.91 1013 8 13 0.00 0.03
7:53 pm 19:53 Cloudy 75 23.9 70 21.1 84 84 E 7 11 29.93 1014 10 16 0.01 0.25
8:53 pm 20:53 Mostly Cloudy 75 23.9 70 21.1 84 84 VRB 3 6 29.95 1014 10 16 0.00 0.00
9:27 pm 21:27 Mostly Cloudy 75 23.9 71 21.7 88 88 Calm 29.97 1015 10 16 0.00 0.00
9:44 pm 21:44 Cloudy 76 24.4 71 21.7 85 85 VRB 5 7 29.94 1014 10 16 0.00 0.00
9:53 pm 21:53 Cloudy 76 24.4 71 21.7 85 85 VRB 6 9 29.96 1015 10 16 0.00 0.00
10:53 pm 22:53 Mostly Cloudy 75 23.9 71 21.7 88 88 VRB 3 6 29.95 1014 10 16 0.00 0.00
11:42 pm 23:42 Mostly Cloudy 76 24.4 71 21.7 85 85 VRB 5 7 30.00 1016 10 16 0.00 0.00
11:53 pm 23:53 Mostly Cloudy 76 24.4 71 21.7 85 85 E 3 6 29.97 1015 10 16 0.00 0.00

Powered by AerisWeather